User: anonymous   Login
Location: Unspecified
(0.0000°N, 0.0000°E)
Time: 19:39:16
(UTC+00:00)
Language:

OFEQ 9 - Orbit

View from above orbital plane
View from above orbital plane
View from above satellite
View from above satellite

Ground track
Ground track

The orbit data is extracted from the following two-line orbital elements,

1 36608U 10031A   21114.11152402 0.00002900  00000-0  10570-3 0    03
2 36608 141.7352  31.4002 0003996 286.1934  73.8058 15.27273883    05
Epoch (UTC): 24 April 2021 02:40:35
Eccentricity: 0.0003996
inclination: 141.7352°
perigee height: 481 km
apogee height: 487 km
right ascension of ascending node: 31.4002°
argument of perigee: 286.1934°
revolutions per day: 15.27273883
mean anomaly at epoch: 73.8058°
orbit number at epoch: 0

The dashed part of the orbit path shows where the satellite is in the earth's shadow,  

DLR